Portada
METAR-TAF:

METAR-TAF

Aeroports :

Bennettsville, Carolina del Sud, Estats Units d'Amèrica

latitud: 34-37-18N, longitud: 079-44-04W, altitud: 45 m

Observació

L'informe es va fer fa 12 minuts, a les 18:15 UTC
Vent 15 kt del Oest/Sud-Oest amb ràfegues de 25 kt
Temperatura 8°C
Humitat 46%
Pressió 1005 hPa
Visibilitat: 16.1 km
Cel ennuvolat a una alçada de 7000 ft
Cel ennuvolat a una alçada de 12000 ft

METAR: KBBP 161815Z AUTO 25015G25KT 10SM BKN070 BKN120 08/M03 A2968 RMK AO2

Hora: 13:27 (18:27 UTC)


TAF: manca

Observacions i pronòstics meteorològics de més de 4000 aeroports (METAR i TAF).

Les estacions disponibles són els punts grocs i vermells al mapa.

Posi el ratolí al punt desitjat per veure el nom de l'estació.

Feu clic per veure les observacions i els pronòstics meteorològics.

Per canviar el mapa: feu clic els botons verds amb una creu de color negre per apropar; al botó verd amb un guió per allunyar la imatge; o en les fletxes verdes per a mapes adjacents.


METAR-TAF: